[[{"header":{"parameterUnit":"m.s-1","parameterCategory":1,"la1":30.2991,"la2":30.254,"lo1":-89.0895,"lo2":-89.0444,"dy":0.0017,"dx":0.0017,"nx":28,"ny":28,"refTime":"2025-04-19T03:00:00:Z","depth":0,"parameterNumber":2,"parameterNumberName":"U-component_of_WINDS"},"data":[0,0,0,0,0,0,0,0,0,0,0,0,0,0,0,0,0,0,0,0,0,0,0,0,0,0,0,0,0,0,0,0,0,0,0,0,0,0,0,0,0,0,0,0,0,0,0,0,0,0,0,0,0,0,0,0,0,0,-5.3895,-5.3896,0,-5.4038,-5.404,-5.4041,-5.4014,-5.4011,-5.4009,-5.4006,-5.415,-5.4156,-5.4162,0,0,0,0,0,0,0,0,0,0,0,0,0,-5.3593,-5.3599,-5.3894,-5.3896,-5.3898,-5.4038,-5.404,-5.4042,-5.4014,-5.4011,-5.4008,-5.4005,-5.4148,-5.4155,-5.4163,0,0,0,0,0,0,0,0,0,0,0,0,0,-5.3729,-5.3601,-5.3894,-5.3901,-5.3903,-5.4038,-5.404,-5.4042,-5.4015,-5.4011,-5.4007,-5.4004,-5.4146,-5.4155,-5.4164,-5.4299,0,0,-5.4193,-5.4197,0,0,0,0,0,0,0,0,-5.3722,-5.374,-5.3898,-5.3901,-5.3904,-5.4004,-5.3986,-5.4128,-5.4016,-5.3973,-5.4006,-5.4002,-5.4105,-5.4117,-5.4152,-5.4306,-5.4312,-5.4193,-5.4199,-5.4203,-5.4206,0,0,0,0,0,0,0,-5.3712,-5.3734,-5.3951,-5.3901,-5.3904,-5.3896,-5.3911,-5.4013,-5.4058,-5.3976,-5.3974,-5.3992,-5.4105,-5.4143,-5.4155,-5.4314,-5.4193,-5.4201,-5.4207,-5.4211,-5.4584,-5.4588,0,0,0,0,0,0,-5.3701,-5.3726,-5.3947,-5.3955,-5.3801,-5.3905,-5.3922,-5.3976,-5.4057,-5.4066,-5.3995,-5.399,-5.4129,-5.4145,-5.416,-5.4322,-5.4203,-5.4212,-5.4217,-5.458,-5.4585,-5.459,0,0,0,0,0,0,-5.3694,-5.3721,-5.3941,-5.3841,-5.3868,-5.3914,-5.3975,-5.3981,-5.4019,-5.4072,-5.4079,-5.4026,-5.4127,-5.4147,-5.4265,-5.4327,-5.4216,-5.4224,-5.4575,-5.4581,-5.4587,-5.4647,0,0,0,0,0,0,-5.3686,-5.3719,-5.3771,-5.3842,-5.3874,-5.4044,-5.3979,-5.3986,-5.4035,-5.403,-5.4103,-5.4111,-5.4125,-5.4251,-5.4274,-5.4338,-5.4232,-5.4569,-5.4578,-5.4585,-5.464,-5.4655,-5.4668,0,0,0,0,0,-5.3675,-5.3782,-5.3774,-5.38,-5.394,-5.4047,-5.4065,-5.4081,-5.4041,-5.4093,-5.4127,-5.4109,-5.4317,-5.4263,-5.4289,-5.4356,-5.4565,-5.4575,-5.4585,-5.4634,-5.4652,-5.4668,0,0,0,0,0,0,-5.3715,-5.3791,-5.3783,-5.3916,-5.3976,-5.4042,-5.4109,-5.41,-5.4171,-5.4163,-5.4179,-5.4195,-5.4314,-5.4347,-5.4286,-5.4491,-5.4435,-5.4451,-5.4464,-5.4482,-5.4496,-5.4483,-5.424,0,0,0,0,0,-5.374,-5.3822,-5.3883,-5.3994,-5.4025,-5.4062,-5.4109,-5.4116,-5.4178,-5.4203,-5.4245,-5.4305,-5.4384,-5.4435,-5.4511,-5.4646,-5.466,-5.4705,-5.4719,-5.473,-5.4742,-5.4814,-5.4834,-5.4621,-5.4621,-5.4621,0,0,-5.3791,-5.3842,-5.3893,-5.4004,-5.4051,-5.4134,-5.4083,-5.4173,-5.4234,-5.4216,-5.4329,-5.4363,-5.443,-5.4557,-5.4615,-5.4588,-5.4805,-5.4743,-5.4751,-5.4757,-5.4826,-5.4846,-5.4864,-5.4628,-5.4627,-5.4626,0,0,-5.3925,-5.3974,-5.4071,-5.4119,-5.4192,-5.4216,-5.4239,-5.4308,-5.433,-5.4444,-5.4432,-5.4505,-5.4641,-5.4689,-5.4731,-5.4886,-5.4871,-5.4911,-5.4982,-5.5052,-5.5069,-5.5084,-5.5136,-5.5155,-5.4923,-5.4923,-5.4923,0,-5.3979,-5.4104,-5.4122,-5.4213,-5.4261,-5.4251,-5.4348,-5.4394,-5.4487,-5.452,-5.449,-5.466,-5.4705,-5.4842,-5.488,-5.4916,-5.4941,-5.49,-5.5066,-5.5081,-5.5095,-5.5145,-5.5165,-5.4927,-5.4927,-5.4926,-5.4926,0,-5.4165,-5.4253,-5.4322,-5.4413,-5.447,-5.4564,-5.4594,-5.465,-5.4653,-5.468,-5.4795,-5.485,-5.4935,-5.4969,-5.4973,-5.5107,-5.5088,-5.5062,-5.5006,-5.5119,-5.5166,-5.5186,-5.4933,-5.4932,-5.493,-5.4929,0,0,-5.4326,-5.4426,-5.4451,-5.4492,-5.4572,-5.4639,-5.4732,-5.4817,-5.4863,-5.4929,-5.5006,-5.5122,-5.5099,-5.5147,-5.5156,-5.5218,-5.5334,-5.5184,-5.5186,-5.5208,-5.5482,-5.5499,-5.5521,-5.5326,-5.533,-5.5333,-5.5475,0,-5.4465,-5.4631,-5.465,-5.4796,-5.4876,-5.4868,-5.4949,-5.5006,-5.5035,-5.5106,-5.5137,-5.5218,-5.5183,-5.5211,-5.5273,-5.5307,-5.5389,-5.5297,-5.5396,-5.5399,-5.5375,-5.5546,-5.5564,-5.5695,-5.5494,-5.5498,-5.55,0,-5.4649,-5.472,-5.4875,-5.4943,-5.4978,-5.505,-5.5129,-5.5198,-5.5263,-5.5279,-5.5334,-5.5335,-5.543,-5.5374,-5.5504,-5.5441,-5.5484,-5.5507,-5.5512,-5.5519,-5.5454,-5.5554,-5.5738,-5.5756,-5.553,-5.5527,-5.5525,0,-5.4747,-5.4882,-5.4992,-5.5027,-5.511,-5.5161,-5.5198,-5.5259,-5.5309,-5.5378,-5.541,-5.549,-5.5532,-5.5594,-5.5616,-5.5573,-5.5745,-5.569,-5.5759,-5.5758,-5.5792,-5.5789,-5.5981,-5.5825,-5.5825,-5.5824,-5.5824,0,-5.4899,-5.4993,-5.5036,-5.5103,-5.5209,-5.523,-5.5333,-5.5368,-5.5422,-5.5495,-5.5494,-5.5562,-5.5589,-5.5662,-5.568,-5.5784,-5.5804,-5.5818,-5.5821,-5.5816,-5.5814,-5.5841,-5.5831,-5.583,-5.5828,-5.5827,-5.5827,0,-5.5024,-5.5057,-5.5176,-5.5246,-5.5265,-5.534,-5.5399,-5.5463,-5.5492,-5.5584,-5.5606,-5.5651,-5.5736,-5.5765,-5.5868,-5.5881,-5.6001,-5.5998,-5.5979,-5.5978,-5.6044,-5.6036,-5.6258,-5.6287,-5.6114,-5.6116,-5.6117,0,-5.5117,-5.5189,-5.5267,-5.5316,-5.5355,-5.5435,-5.5485,-5.551,-5.5563,-5.5642,-5.5697,-5.5782,-5.585,-5.5987,-5.6027,-5.6106,-5.6103,-5.6175,-5.6114,-5.6107,-5.61,-5.6094,-5.61,-5.6185,-5.6187,-5.6188,-5.6189,0,-5.5277,-5.529,-5.5364,-5.5444,-5.5506,-5.557,-5.5632,-5.5672,-5.5705,-5.5765,-5.5852,-5.5906,-5.6012,-5.6095,-5.6176,-5.6213,-5.6206,-5.6209,-5.6228,-5.6222,-5.6207,-5.6213,-5.6006,-5.6203,-5.6201,-5.62,-5.62,-5.6199,-5.5387,-5.545,-5.5515,-5.5597,-5.5647,-5.5705,-5.5768,-5.5805,-5.5879,-5.5967,-5.5978,-5.6071,-5.6134,-5.6242,-5.6283,-5.6355,-5.6335,-5.6364,-5.6371,-5.6376,-5.638,-5.6199,-5.6371,-5.637,-5.637,-5.637,-5.637,0,-5.5544,-5.5586,-5.5662,-5.5748,-5.5813,-5.5804,-5.5872,-5.5926,-5.6009,-5.6069,-5.6137,-5.6237,-5.6318,-5.6366,-5.6447,-5.6496,-5.6495,-5.6517,-5.6511,-5.6519,-5.6395,-5.6368,-5.6516,-5.6516,-5.6516,-5.6516,-5.6516,-5.6516,-5.5633,-5.5739,-5.576,-5.5891,-5.5932,-5.6024,-5.6063,-5.6117,-5.6164,-5.6276,-5.6344,-5.6375,-5.643,-5.6515,-5.6589,-5.6601,-5.663,-5.6652,-5.6662,-5.6544,-5.6528,-5.6514,-5.6489,-5.6659,-5.6659,-5.678,-5.6781,-5.6782]},{"header":{"parameterUnit":"m.s-1","parameterCategory":1,"la1":30.2991,"la2":30.254,"lo1":-89.0895,"lo2":-89.0444,"dy":0.0017,"dx":0.0017,"nx":28,"ny":28,"refTime":"2025-04-19T03:00:00:Z","depth":0,"parameterNumber":3,"parameterNumberName":"V-component_of_WINDS"},"data":[0,0,0,0,0,0,0,0,0,0,0,0,0,0,0,0,0,0,0,0,0,0,0,0,0,0,0,0,0,0,0,0,0,0,0,0,0,0,0,0,0,0,0,0,0,0,0,0,0,0,0,0,0,0,0,0,0,0,3.0648,3.0649,0,3.0746,3.0747,3.0748,3.075,3.0748,3.0747,3.0746,3.0843,3.0847,3.085,0,0,0,0,0,0,0,0,0,0,0,0,0,3.0462,3.0465,3.0648,3.0649,3.0651,3.0746,3.0747,3.0748,3.075,3.0748,3.0747,3.0746,3.0842,3.0846,3.0851,0,0,0,0,0,0,0,0,0,0,0,0,0,3.0549,3.0466,3.0648,3.0663,3.0665,3.0746,3.0747,3.0749,3.075,3.0748,3.0747,3.0745,3.084,3.0846,3.0851,3.0922,0,0,3.0868,3.0871,0,0,0,0,0,0,0,0,3.0544,3.0556,3.0659,3.0662,3.0665,3.0734,3.0717,3.0807,3.0751,3.0718,3.0746,3.0744,3.0808,3.0816,3.0838,3.0927,3.0931,3.0869,3.0872,3.0875,3.0876,0,0,0,0,0,0,0,3.0538,3.0552,3.0687,3.0661,3.0664,3.0664,3.0675,3.0734,3.0772,3.0721,3.0721,3.0733,3.0809,3.0833,3.0841,3.0932,3.0869,3.0874,3.0877,3.0879,3.1087,3.1089,0,0,0,0,0,0,3.0529,3.0547,3.0684,3.069,3.0599,3.0669,3.0681,3.0713,3.0771,3.0778,3.0734,3.0732,3.0824,3.0834,3.0844,3.0933,3.0875,3.088,3.0883,3.1084,3.1087,3.1089,0,0,0,0,0,0,3.0525,3.0542,3.068,3.0618,3.0636,3.0674,3.0711,3.0716,3.074,3.0782,3.0788,3.0752,3.0823,3.0836,3.0904,3.0936,3.0882,3.0887,3.1082,3.1085,3.1088,3.1109,0,0,0,0,0,0,3.052,3.054,3.0568,3.0619,3.0639,3.0738,3.0713,3.072,3.075,3.0749,3.08,3.0806,3.0823,3.0895,3.0909,3.0943,3.0892,3.1079,3.1083,3.1087,3.1106,3.1113,3.1119,0,0,0,0,0,3.0513,3.0568,3.0569,3.0585,3.0675,3.074,3.0751,3.077,3.0753,3.0781,3.0808,3.0805,3.093,3.0902,3.0918,3.0953,3.1077,3.1082,3.1087,3.1103,3.1111,3.1119,0,0,0,0,0,0,3.0518,3.0575,3.0577,3.065,3.069,3.074,3.0776,3.0778,3.0823,3.082,3.084,3.0852,3.0919,3.0943,3.0911,3.1026,3.1002,3.101,3.1008,3.1017,3.1023,3.1016,3.0896,0,0,0,0,0,3.0528,3.0577,3.0624,3.0684,3.0705,3.0737,3.0766,3.0777,3.0819,3.0836,3.0867,3.0908,3.0956,3.0988,3.1035,3.1109,3.1121,3.1142,3.1148,3.1153,3.116,3.1203,3.1214,3.1105,3.1105,3.1105,0,0,3.0548,3.0586,3.0615,3.0686,3.0719,3.0769,3.0751,3.0804,3.0841,3.0843,3.091,3.0935,3.0981,3.1053,3.1086,3.1075,3.1193,3.116,3.1163,3.1168,3.121,3.122,3.1229,3.1109,3.1108,3.1107,0,0,3.0611,3.0644,3.0699,3.0732,3.0783,3.0804,3.0817,3.0868,3.0885,3.0952,3.0955,3.1,3.1082,3.1116,3.1144,3.1223,3.1222,3.1237,3.1271,3.1313,3.1322,3.1329,3.1359,3.1369,3.1244,3.1244,3.1244,0,3.063,3.0706,3.0726,3.0781,3.0813,3.0819,3.0875,3.0906,3.0968,3.099,3.0977,3.1083,3.1114,3.1195,3.1215,3.1237,3.1253,3.1231,3.1319,3.1327,3.1334,3.1362,3.1373,3.1246,3.1245,3.1245,3.1245,0,3.0727,3.078,3.0818,3.0881,3.0917,3.0971,3.1,3.1034,3.1043,3.1066,3.1135,3.1174,3.1229,3.1249,3.1257,3.1332,3.1324,3.1314,3.129,3.1346,3.1373,3.1384,3.1248,3.1247,3.1247,3.1246,0,0,3.0794,3.0869,3.0883,3.0912,3.0969,3.101,3.1066,3.1122,3.1151,3.1195,3.1242,3.1314,3.1306,3.1338,3.135,3.1387,3.1449,3.1373,3.1375,3.1387,3.1535,3.1543,3.1555,3.1449,3.1451,3.1453,3.1532,0,3.0864,3.0964,3.0985,3.1072,3.1122,3.1129,3.1178,3.1218,3.1241,3.1287,3.1312,3.1364,3.1349,3.1369,3.1405,3.1433,3.1479,3.1428,3.1494,3.1496,3.1483,3.1569,3.1576,3.1649,3.1542,3.1544,3.1545,0,3.0959,3.1007,3.1098,3.1151,3.1173,3.1216,3.1271,3.1314,3.136,3.1375,3.1412,3.1421,3.1479,3.1452,3.1533,3.1498,3.1527,3.1545,3.1548,3.1555,3.1524,3.1579,3.1672,3.1684,3.1562,3.1561,3.1559,0,3.1,3.1087,3.1154,3.1179,3.1241,3.1272,3.1299,3.1344,3.1377,3.1424,3.1446,3.1499,3.1528,3.1569,3.1592,3.157,3.1673,3.1647,3.1687,3.1686,3.1708,3.1706,3.1808,3.1725,3.1725,3.1725,3.1724,0,3.1077,3.1133,3.1174,3.1215,3.1279,3.1303,3.1365,3.1392,3.1432,3.1479,3.1488,3.1531,3.1559,3.1607,3.1625,3.1691,3.1703,3.1717,3.1721,3.1717,3.1715,3.1736,3.1731,3.1728,3.1727,3.1726,3.1726,0,3.1134,3.1164,3.1237,3.1291,3.1306,3.1351,3.1397,3.1438,3.1462,3.1521,3.1536,3.1574,3.1631,3.1658,3.1728,3.174,3.1815,3.1816,3.18,3.1802,3.1841,3.1837,3.196,3.1978,3.1882,3.1883,3.1883,0,3.1181,3.1225,3.1284,3.1317,3.1345,3.1397,3.1432,3.1458,3.1493,3.1551,3.1584,3.1642,3.1689,3.178,3.1813,3.1867,3.187,3.1909,3.1878,3.1873,3.1872,3.1869,3.1875,3.1915,3.1916,3.1916,3.1917,0,3.1261,3.1275,3.1325,3.1381,3.1423,3.1467,3.1512,3.1538,3.157,3.161,3.1669,3.1706,3.1779,3.1836,3.1893,3.1921,3.1925,3.1927,3.1939,3.1935,3.1925,3.1932,3.1816,3.1924,3.1923,3.1923,3.1922,3.1922,3.1316,3.1356,3.1405,3.1461,3.1497,3.1539,3.1581,3.1611,3.1661,3.1723,3.1735,3.1798,3.1845,3.1922,3.1952,3.2002,3.1993,3.201,3.2015,3.2019,3.2022,3.1917,3.2012,3.2012,3.2012,3.2012,3.2012,0,3.1398,3.1431,3.1482,3.1545,3.1589,3.1591,3.164,3.1677,3.1733,3.1777,3.1824,3.1893,3.1949,3.1988,3.2045,3.2078,3.2081,3.2092,3.209,3.2097,3.2026,3.201,3.2089,3.2089,3.2089,3.2089,3.2089,3.2089,3.1446,3.1515,3.1535,3.1622,3.1654,3.1717,3.1745,3.1784,3.1819,3.1896,3.1944,3.1969,3.2012,3.2073,3.2125,3.2135,3.2156,3.2167,3.2177,3.211,3.2102,3.2094,3.2079,3.2171,3.2171,3.2244,3.2245,3.2245]}]]